Location: Im Fang
(46.6019°N, 7.2397°E)
Time: 17:21:50
(UTC+00:00)

Cosmos 1346 Rocket - Pass Details

Date: 08 December 2019
Orbit: 524 x 555 km, 81.2° (Epoch: 25 January)

Event Time Altitude Azimuth Distance (km) Brightness Sun altitude
Rises 05:59:51 0° 203° (SSW) 2,645 6.3 -10.3°
Reaches altitude 10° 06:02:02 10° 209° (SSW) 1,761 5.3 -9.9°
Maximum altitude 06:05:47 48° 285° (WNW) 699 2.9 -9.3°
Drops below altitude 10° 06:09:34 10° 0° (N) 1,779 5.2 -8.7°
Sets 06:11:47 0° 7° (N) 2,677 6.1 -8.4°
